Midland, MI

3:10 AM EDT on September 26, 2016 (GMT -0400)
Barstow

Weather History for KIKW - December, 2013

Change the Weather History Date:

Saturday, December 7, 2013

  Actual Average (KMBS) Record (KMBS)
Temperature  
Mean Temperature 16 °F 30 °F  
Max Temperature 23 °F 36 °F 46 °F (2012)
Min Temperature 8 °F 24 °F 6 °F (2005)
Degree Days  
Heating Degree Days 49    
Month to date heating degree days  
Since 1 July heating degree days  
Cooling Degree Days 0    
Month to date cooling degree days  
Year to date cooling degree days  
Moisture  
Dew Point 9 °F    
Average Humidity 65    
Maximum Humidity 88    
Minimum Humidity 52    
Precipitation  
Precipitation 0.00 in 0.07 in 0.79 in (2004)
Month to date precipitation 0.48  
Year to date precipitation 30.16  
Snow  
Snow 0.00 in - - ()
Month to date snowfall  
Since 1 July snowfall  
Snow Depth -    
Sea Level Pressure  
Sea Level Pressure 30.51 in    
Wind  
Wind Speed 7 mph (West)    
Max Wind Speed 14 mph    
Max Gust Speed 21 mph    
Visibility 10 miles    
Events Snow    
T = Trace of Precipitation, MM = Missing Value Source: NWS Daily Summary

Daily Weather History Graph

Daily Weather History Graph

Search for Another Location

Airport or City:

Trip Planner

Search our weather history database for the weather conditions in past years. The results will help you decide how hot, cold, wet, or windy it might be!

Date:

Astronomy

Dec. 07, 2013 Rise Set
Actual Time 7:57 AM EST 5:00 PM EST
Civil Twilight 7:24 AM EST 5:32 PM EST
Nautical Twilight 6:48 AM EST 6:08 PM EST
Astronomical Twilight 6:13 AM EST 6:43 PM EST
Moon 11:35 AM EST (12/7) 10:48 PM EST (12/7)
Length of Visible Light 10h 08m
Length of Day
9h 02m
Waxing Crescent, 29% of the Moon is Illuminated
Dec 7
Waxing Crescent
Dec 9
First Quarter
Dec 17
Full
Dec 25
Last Quarter
Jan 1
New

Hourly Weather History & Observations

Time (EST) Temp. Windchill Dew Point Humidity Pressure Visibility Wind Dir Wind Speed Gust Speed Precip Events Conditions
12:13 AM 21.0 °F 12.4 °F 10.4 °F 64% 30.38 in 10.0 mi West 6.9 mph - N/A   Overcast
12:33 AM 21.2 °F 16.4 °F 11.1 °F 65% 30.38 in 10.0 mi West 3.5 mph - N/A   Overcast
12:52 AM 21.0 °F 14.6 °F 12.0 °F 68% 30.38 in 10.0 mi West 4.6 mph - N/A Snow Light Snow
1:13 AM 21.0 °F 13.4 °F 12.4 °F 69% 30.38 in 10.0 mi West 5.8 mph - N/A   Overcast
1:32 AM 21.2 °F 13.6 °F 11.7 °F 67% 30.38 in 10.0 mi West 5.8 mph - N/A   Overcast
1:53 AM 21.2 °F 13.6 °F 11.7 °F 67% 30.39 in 10.0 mi West 5.8 mph - N/A   Overcast
2:13 AM 21.2 °F 13.6 °F 12.2 °F 68% 30.39 in 10.0 mi West 5.8 mph - N/A   Overcast
2:32 AM 21.2 °F 11.7 °F 12.7 °F 70% 30.40 in 10.0 mi West 8.1 mph - N/A   Overcast
2:53 AM 21.2 °F 14.9 °F 12.9 °F 70% 30.41 in 10.0 mi West 4.6 mph - N/A   Overcast
3:12 AM 21.2 °F 16.4 °F 12.0 °F 68% 30.41 in 10.0 mi West 3.5 mph - N/A   Overcast
3:33 AM 21.2 °F 13.6 °F 11.7 °F 67% 30.41 in 10.0 mi West 5.8 mph - N/A   Overcast
3:53 AM 21.2 °F 13.6 °F 11.8 °F 67% 30.42 in 10.0 mi West 5.8 mph - N/A   Overcast
4:12 AM 21.2 °F 13.6 °F 11.3 °F 66% 30.42 in 10.0 mi West 5.8 mph 17.3 mph N/A   Overcast
4:33 AM 21.2 °F 12.6 °F 10.0 °F 62% 30.43 in 10.0 mi West 6.9 mph - N/A   Overcast
4:52 AM 21.0 °F 10.6 °F 10.4 °F 64% 30.43 in 10.0 mi WNW 9.2 mph - N/A   Overcast
5:12 AM 20.8 °F 9.7 °F 10.8 °F 65% 30.44 in 10.0 mi West 10.4 mph - N/A   Overcast
5:33 AM 20.3 °F 9.8 °F 10.9 °F 67% 30.45 in 10.0 mi West 9.2 mph 16.1 mph N/A   Overcast
5:52 AM 20.3 °F 9.8 °F 10.9 °F 67% 30.45 in 10.0 mi West 9.2 mph - N/A   Overcast
6:12 AM 20.1 °F 9.5 °F 9.3 °F 63% 30.46 in 10.0 mi West 9.2 mph 17.3 mph N/A   Overcast
6:33 AM 19.8 °F 8.3 °F 9.3 °F 64% 30.46 in 10.0 mi WNW 10.4 mph - N/A   Mostly Cloudy
6:53 AM 19.9 °F 12.1 °F 10.6 °F 67% 30.47 in 10.0 mi West 5.8 mph 9.2 mph N/A   Overcast
7:12 AM 19.9 °F 9.3 °F 10.0 °F 65% 30.47 in 10.0 mi West 9.2 mph - N/A   Overcast
7:33 AM 19.8 °F 9.1 °F 10.9 °F 69% 30.48 in 10.0 mi West 9.2 mph - N/A   Overcast
7:53 AM 19.0 °F 6.8 °F 7.7 °F 61% 30.49 in 10.0 mi West 11.5 mph 17.3 mph N/A   Overcast
8:12 AM 18.5 °F 7.5 °F 7.0 °F 61% 30.50 in 10.0 mi WNW 9.2 mph 16.1 mph N/A   Overcast
8:33 AM 18.7 °F 7.0 °F 7.3 °F 61% 30.50 in 10.0 mi West 10.4 mph 20.7 mph N/A   Overcast
8:53 AM 18.5 °F 8.4 °F 7.7 °F 63% 30.51 in 10.0 mi West 8.1 mph - N/A   Overcast
9:12 AM 19.0 °F 9.0 °F 8.1 °F 62% 30.51 in 10.0 mi West 8.1 mph - N/A   Overcast
9:33 AM 19.4 °F 7.2 °F 7.3 °F 60% 30.52 in 10.0 mi West 11.5 mph 16.1 mph N/A   Overcast
9:53 AM 19.4 °F 8.6 °F 7.3 °F 60% 30.53 in 10.0 mi West 9.2 mph - N/A   Overcast
10:13 AM 19.8 °F 7.1 °F 7.7 °F 60% 30.54 in 10.0 mi West 12.7 mph - N/A   Overcast
10:33 AM 19.9 °F 9.3 °F 8.1 °F 60% 30.55 in 10.0 mi West 9.2 mph - N/A   Overcast
10:53 AM 19.9 °F 7.9 °F 7.7 °F 59% 30.55 in 10.0 mi West 11.5 mph - N/A   Overcast
11:12 AM 20.3 °F 9.8 °F 7.9 °F 59% 30.56 in 10.0 mi WNW 9.2 mph 16.1 mph N/A   Overcast
11:32 AM 21.2 °F 10.1 °F 8.4 °F 58% 30.56 in 10.0 mi West 10.4 mph 18.4 mph N/A   Overcast
11:53 AM 21.2 °F 8.9 °F 8.8 °F 59% 30.55 in 10.0 mi West 12.7 mph 17.3 mph N/A   Overcast
12:12 PM 21.2 °F 8.9 °F 7.9 °F 57% 30.55 in 10.0 mi WNW 12.7 mph 17.3 mph N/A   Mostly Cloudy
12:33 PM 22.3 °F 13.9 °F 9.0 °F 57% 30.54 in 10.0 mi WNW 6.9 mph 17.3 mph N/A   Mostly Cloudy
12:52 PM 22.8 °F 12.9 °F 8.1 °F 53% 30.53 in 10.0 mi West 9.2 mph 20.7 mph N/A   Mostly Cloudy
1:12 PM 21.7 °F 11.5 °F 7.7 °F 55% 30.54 in 10.0 mi West 9.2 mph - N/A   Mostly Cloudy
1:33 PM 22.5 °F 13.2 °F 7.9 °F 54% 30.54 in 10.0 mi West 8.1 mph 17.3 mph N/A   Scattered Clouds
1:52 PM 23.5 °F 12.4 °F 8.1 °F 52% 30.53 in 10.0 mi WNW 11.5 mph 17.3 mph N/A   Scattered Clouds
2:12 PM 23.7 °F 14.0 °F 8.2 °F 52% 30.53 in 10.0 mi West 9.2 mph - N/A   Scattered Clouds
2:33 PM 23.2 °F 11.4 °F 8.2 °F 53% 30.52 in 10.0 mi WNW 12.7 mph 16.1 mph N/A   Clear
2:52 PM 22.6 °F 10.1 °F 7.7 °F 53% 30.53 in 10.0 mi West 13.8 mph 18.4 mph N/A   Clear
3:13 PM 22.6 °F 11.9 °F 7.7 °F 53% 30.53 in 10.0 mi WNW 10.4 mph 16.1 mph N/A   Clear
3:33 PM 22.1 °F 10.6 °F 7.5 °F 54% 30.53 in 10.0 mi West 11.5 mph 18.4 mph N/A   Clear
3:52 PM 21.7 °F 10.2 °F 7.0 °F 53% 30.54 in 10.0 mi West 11.5 mph 16.1 mph N/A   Clear
4:13 PM 21.6 °F 10.6 °F 7.3 °F 54% 30.54 in 10.0 mi West 10.4 mph - N/A   Clear
4:32 PM 21.0 °F 9.9 °F 7.0 °F 55% 30.55 in 10.0 mi West 10.4 mph - N/A   Clear
4:53 PM 19.9 °F 12.1 °F 7.3 °F 58% 30.55 in 10.0 mi West 5.8 mph - N/A   Clear
5:13 PM 19.2 °F 11.3 °F 7.0 °F 59% 30.55 in 10.0 mi West 5.8 mph - N/A   Clear
5:32 PM 18.3 °F 10.2 °F 7.3 °F 62% 30.56 in 10.0 mi West 5.8 mph - N/A   Clear
5:53 PM 18.1 °F 11.3 °F 7.2 °F 62% 30.56 in 10.0 mi West 4.6 mph - N/A   Clear
6:12 PM 17.6 °F 12.3 °F 7.3 °F 64% 30.56 in 10.0 mi West 3.5 mph - N/A   Clear
6:32 PM 16.9 °F 9.8 °F 7.3 °F 66% 30.57 in 10.0 mi West 4.6 mph - N/A   Clear
6:53 PM 16.5 °F 11.0 °F 7.5 °F 68% 30.57 in 10.0 mi West 3.5 mph - N/A   Clear
7:12 PM 16.3 °F 9.2 °F 7.2 °F 67% 30.58 in 10.0 mi West 4.6 mph - N/A   Clear
7:32 PM 15.8 °F 10.2 °F 6.8 °F 68% 30.59 in 10.0 mi West 3.5 mph - N/A   Clear
7:53 PM 15.3 °F 9.6 °F 7.2 °F 70% 30.59 in 10.0 mi West 3.5 mph - N/A   Clear
8:13 PM 14.9 °F - 7.2 °F 71% 30.59 in 10.0 mi Calm Calm - N/A   Clear
8:32 PM 14.4 °F 8.6 °F 6.8 °F 72% 30.59 in 10.0 mi West 3.5 mph - N/A   Clear
8:53 PM 14.0 °F 8.2 °F 6.8 °F 73% 30.59 in 10.0 mi West 3.5 mph - N/A   Clear
9:13 PM 13.8 °F 8.0 °F 6.8 °F 74% 30.59 in 10.0 mi West 3.5 mph - N/A   Clear
9:32 PM 13.1 °F - 6.4 °F 75% 30.59 in 10.0 mi Calm Calm - N/A   Clear
9:53 PM 12.4 °F - 6.4 °F 77% 30.59 in 10.0 mi Calm Calm - N/A   Clear
10:13 PM 10.0 °F - 5.9 °F 83% 30.59 in 10.0 mi Calm Calm - N/A   Clear
10:33 PM 9.5 °F - 5.9 °F 85% 30.57 in 10.0 mi Calm Calm - N/A   Clear
10:53 PM 9.3 °F - 5.9 °F 86% 30.57 in 10.0 mi Calm Calm - N/A   Clear
11:12 PM 9.1 °F - 6.1 °F 87% 30.57 in 10.0 mi Calm Calm - N/A   Clear
11:33 PM 9.3 °F - 6.3 °F 87% 30.57 in 10.0 mi Calm Calm - N/A   Clear
11:53 PM 8.8 °F - 5.9 °F 88% 30.57 in 10.0 mi Calm Calm - N/A   Clear